Volver al catálogo

STARLINK-11558

ActivoComunicacionesVLEO
NORAD 63055·PAYLOAD·🇺🇸 United States

Lanzado Feb 21, 2025 desde Cape Canaveral Space Force Station

Loading…

Próximos Pases (próximas 24 horas)

TLE

ActualizadoSource: CelesTrak SupGP

Época: Sep 14, 2026, 21:33 UTC

1 63055C 25035D   26257.89840278 -.00057051  00000+0 -44311-3 0  2574
2 63055  43.0004 314.4129 0001699 258.7532  93.8322 15.70866608    18

Sigue STARLINK-11558 en tiempo real con AllMySat

Download on the App Store